Time,TemperatureF,DewpointF,PressureIn,WindDirection,WindDirectionDegrees,WindSpeedMPH,WindSpeedGustMPH,Humidity,HourlyPrecipIn,Conditions,Clouds,dailyrainin,SoftwareType,DateUTC
2013-02-05 00:00:00,27.2,23.2,29.86,SSE,158,0.0,0.4,85,0.00,,,0.00,WUHU216HW,2013-02-05 05:00:00,
2013-02-05 00:05:00,27.2,23.2,29.87,SSE,158,0.0,0.0,85,0.00,,,0.00,WUHU216HW,2013-02-05 05:05:00,
2013-02-05 00:10:00,27.2,23.2,29.86,SSE,158,0.0,0.0,85,0.00,,,0.00,WUHU216HW,2013-02-05 05:10:00,
2013-02-05 00:15:00,27.4,23.4,29.87,SSE,158,0.0,0.0,85,0.00,,,0.00,WUHU216HW,2013-02-05 05:15:00,
2013-02-05 00:20:00,27.4,23.4,29.87,SSE,158,0.0,0.0,85,0.00,,,0.00,WUHU216HW,2013-02-05 05:20:00,
2013-02-05 00:25:00,27.4,23.4,29.87,SSE,158,0.0,0.0,85,0.00,,,0.00,WUHU216HW,2013-02-05 05:25:00,
2013-02-05 00:30:00,27.4,23.4,29.86,SSE,158,0.0,0.0,85,0.00,,,0.00,WUHU216HW,2013-02-05 05:30:00,
2013-02-05 00:35:00,27.4,23.4,29.86,SSE,158,0.0,0.0,85,0.00,,,0.00,WUHU216HW,2013-02-05 05:35:00,
2013-02-05 00:40:00,27.5,23.6,29.86,SSE,158,0.0,0.0,85,0.00,,,0.00,WUHU216HW,2013-02-05 05:40:00,
2013-02-05 00:45:00,27.5,23.6,29.86,SSE,158,0.0,0.0,85,0.00,,,0.00,WUHU216HW,2013-02-05 05:45:00,
2013-02-05 00:50:00,27.5,23.6,29.86,SSE,158,0.0,0.0,85,0.00,,,0.00,WUHU216HW,2013-02-05 05:50:00,
2013-02-05 00:55:00,27.7,23.8,29.86,SSE,158,0.0,0.0,85,0.00,,,0.00,WUHU216HW,2013-02-05 05:55:00,
2013-02-05 01:00:00,27.7,23.8,29.86,SSE,158,0.0,0.0,85,0.00,,,0.00,WUHU216HW,2013-02-05 06:00:00,
2013-02-05 01:05:00,27.7,23.8,29.86,SSE,158,0.0,0.0,85,0.00,,,0.00,WUHU216HW,2013-02-05 06:05:00,
2013-02-05 01:10:00,27.7,23.8,29.86,SSE,158,0.0,0.0,85,0.00,,,0.00,WUHU216HW,2013-02-05 06:10:00,
2013-02-05 01:15:00,27.7,23.8,29.86,SSE,158,0.0,0.0,85,0.00,,,0.00,WUHU216HW,2013-02-05 06:15:00,
2013-02-05 01:20:00,27.7,23.8,29.85,SSE,158,0.0,0.0,85,0.00,,,0.00,WUHU216HW,2013-02-05 06:20:00,
2013-02-05 01:25:00,27.7,23.8,29.85,SSE,158,0.0,0.0,85,0.00,,,0.00,WUHU216HW,2013-02-05 06:25:00,
2013-02-05 01:30:00,27.7,23.8,29.85,SSE,158,0.0,0.0,85,0.00,,,0.00,WUHU216HW,2013-02-05 06:30:00,
2013-02-05 01:35:00,27.9,23.9,29.85,SSE,158,0.0,0.0,85,0.00,,,0.00,WUHU216HW,2013-02-05 06:35:00,
2013-02-05 01:40:00,27.9,23.9,29.85,SSE,158,0.2,0.2,85,0.00,,,0.00,WUHU216HW,2013-02-05 06:40:00,
2013-02-05 01:45:00,27.9,23.9,29.85,SSE,158,0.0,0.2,85,0.00,,,0.00,WUHU216HW,2013-02-05 06:45:00,
2013-02-05 01:50:00,27.9,23.9,29.86,SSE,158,0.0,0.0,85,0.00,,,0.00,WUHU216HW,2013-02-05 06:50:00,
2013-02-05 01:55:00,27.9,24.2,29.86,SSE,158,0.0,0.0,86,0.00,,,0.00,WUHU216HW,2013-02-05 06:55:00,
2013-02-05 02:00:00,27.9,24.2,29.86,SSE,158,0.0,0.4,86,0.00,,,0.00,WUHU216HW,2013-02-05 07:00:00,
2013-02-05 02:05:00,27.9,24.2,29.86,SSE,158,0.0,0.4,86,0.00,,,0.00,WUHU216HW,2013-02-05 07:05:00,
2013-02-05 02:10:00,28.1,24.7,29.86,SSE,158,0.0,0.0,87,0.00,,,0.00,WUHU216HW,2013-02-05 07:10:00,
2013-02-05 02:15:00,28.1,24.7,29.86,SSE,158,0.2,0.2,87,0.00,,,0.00,WUHU216HW,2013-02-05 07:15:00,
2013-02-05 02:20:00,28.1,25.0,29.87,SSE,158,0.0,1.1,88,0.00,,,0.00,WUHU216HW,2013-02-05 07:20:00,
2013-02-05 02:25:00,28.1,25.0,29.86,SSE,158,0.4,1.1,88,0.00,,,0.00,WUHU216HW,2013-02-05 07:25:00,
2013-02-05 02:30:00,28.1,25.0,29.87,SSE,158,0.0,0.4,88,0.00,,,0.00,WUHU216HW,2013-02-05 07:30:00,
2013-02-05 02:35:00,28.1,25.0,29.88,SSE,158,1.1,1.1,88,0.00,,,0.00,WUHU216HW,2013-02-05 07:35:00,
2013-02-05 02:40:00,28.1,25.0,29.88,SSE,158,0.2,1.1,88,0.00,,,0.00,WUHU216HW,2013-02-05 07:40:00,
2013-02-05 02:45:00,28.1,25.0,29.88,SW,225,1.8,1.8,88,0.00,,,0.00,WUHU216HW,2013-02-05 07:45:00,
2013-02-05 02:50:00,28.1,25.3,29.88,NNW,338,0.4,1.8,89,0.00,,,0.00,WUHU216HW,2013-02-05 07:50:00,
2013-02-05 02:55:00,27.9,25.4,29.88,WSW,248,0.2,1.8,90,0.00,,,0.00,WUHU216HW,2013-02-05 07:55:00,
2013-02-05 03:00:00,27.9,25.1,29.87,NW,315,0.4,1.8,89,0.00,,,0.00,WUHU216HW,2013-02-05 08:00:00,
2013-02-05 03:05:00,27.9,25.1,29.87,NW,315,0.0,1.6,89,0.00,,,0.00,WUHU216HW,2013-02-05 08:05:00,
2013-02-05 03:10:00,27.9,25.1,29.86,NW,315,0.7,0.7,89,0.00,,,0.00,WUHU216HW,2013-02-05 08:10:00,
2013-02-05 03:15:00,27.7,25.2,29.86,NW,315,0.4,1.8,90,0.00,,,0.00,WUHU216HW,2013-02-05 08:15:00,
2013-02-05 03:20:00,27.7,24.9,29.86,NNW,338,0.2,1.8,89,0.00,,,0.00,WUHU216HW,2013-02-05 08:20:00,
2013-02-05 03:25:00,27.7,24.9,29.86,NNW,338,0.0,0.4,89,0.00,,,0.00,WUHU216HW,2013-02-05 08:25:00,
2013-02-05 03:30:00,27.7,24.9,29.86,NW,315,0.4,0.7,89,0.00,,,0.00,WUHU216HW,2013-02-05 08:30:00,
2013-02-05 03:35:00,27.7,24.9,29.86,NW,315,0.0,0.7,89,0.00,,,0.00,WUHU216HW,2013-02-05 08:35:00,
2013-02-05 03:40:00,27.7,24.9,29.86,NW,315,0.0,0.2,89,0.00,,,0.00,WUHU216HW,2013-02-05 08:40:00,
2013-02-05 03:45:00,27.7,24.9,29.86,NW,315,0.0,0.2,89,0.00,,,0.00,WUHU216HW,2013-02-05 08:45:00,
2013-02-05 03:50:00,27.7,24.9,29.86,NNW,338,0.0,0.2,89,0.00,,,0.00,WUHU216HW,2013-02-05 08:50:00,
2013-02-05 03:55:00,27.7,24.9,29.86,NW,315,0.2,1.6,89,0.00,,,0.00,WUHU216HW,2013-02-05 08:55:00,
2013-02-05 04:00:00,27.5,25.0,29.86,NNW,338,0.0,1.6,90,0.00,,,0.00,WUHU216HW,2013-02-05 09:00:00,
2013-02-05 04:05:00,27.5,24.8,29.86,NW,315,0.2,1.1,89,0.00,,,0.00,WUHU216HW,2013-02-05 09:05:00,
2013-02-05 04:10:00,27.5,25.0,29.86,NW,315,0.4,0.9,90,0.00,,,0.00,WUHU216HW,2013-02-05 09:10:00,
2013-02-05 04:15:00,27.5,24.8,29.86,NW,315,1.1,1.1,89,0.00,,,0.00,WUHU216HW,2013-02-05 09:15:00,
2013-02-05 04:20:00,27.4,24.8,29.86,NW,315,0.4,1.1,90,0.00,,,0.00,WUHU216HW,2013-02-05 09:20:00,
2013-02-05 04:25:00,27.4,24.8,29.86,NNW,338,0.9,1.3,90,0.00,,,0.00,WUHU216HW,2013-02-05 09:25:00,
2013-02-05 04:30:00,27.4,24.6,29.86,NNW,338,0.0,1.3,89,0.00,,,0.00,WUHU216HW,2013-02-05 09:30:00,
2013-02-05 04:35:00,27.4,24.6,29.87,NNW,338,0.7,0.7,89,0.00,,,0.00,WUHU216HW,2013-02-05 09:35:00,
2013-02-05 04:40:00,27.4,24.8,29.87,NNW,338,0.0,0.7,90,0.00,,,0.00,WUHU216HW,2013-02-05 09:40:00,
2013-02-05 04:45:00,27.4,24.6,29.86,NNW,338,0.0,0.7,89,0.00,,,0.00,WUHU216HW,2013-02-05 09:45:00,
2013-02-05 04:50:00,27.4,24.6,29.86,NNW,338,0.0,0.2,89,0.00,,,0.00,WUHU216HW,2013-02-05 09:50:00,
2013-02-05 04:55:00,27.4,24.6,29.87,NW,315,0.4,0.7,89,0.00,,,0.00,WUHU216HW,2013-02-05 09:55:00,
2013-02-05 05:00:00,27.4,24.8,29.86,NW,315,0.4,0.9,90,0.00,,,0.00,WUHU216HW,2013-02-05 10:00:00,
2013-02-05 05:05:00,27.4,24.6,29.87,NW,315,1.1,1.1,89,0.00,,,0.00,WUHU216HW,2013-02-05 10:05:00,
2013-02-05 05:10:00,27.2,24.7,29.87,NW,315,0.7,1.1,90,0.00,,,0.00,WUHU216HW,2013-02-05 10:10:00,
2013-02-05 05:15:00,27.2,24.7,29.87,NNW,338,0.4,1.1,90,0.00,,,0.00,WUHU216HW,2013-02-05 10:15:00,
2013-02-05 05:20:00,27.2,24.7,29.87,NW,315,0.4,1.1,90,0.00,,,0.00,WUHU216HW,2013-02-05 10:20:00,
2013-02-05 05:25:00,27.2,24.7,29.87,NW,315,0.2,1.1,90,0.00,,,0.00,WUHU216HW,2013-02-05 10:25:00,
2013-02-05 05:30:00,27.2,24.4,29.87,NW,315,0.2,0.7,89,0.00,,,0.00,WUHU216HW,2013-02-05 10:30:00,
2013-02-05 05:35:00,27.2,24.4,29.87,NW,315,0.0,0.4,89,0.00,,,0.00,WUHU216HW,2013-02-05 10:35:00,
2013-02-05 05:40:00,27.2,24.4,29.87,NW,315,0.0,0.2,89,0.00,,,0.00,WUHU216HW,2013-02-05 10:40:00,
2013-02-05 05:45:00,27.2,24.4,29.88,North,0,0.0,0.0,89,0.00,,,0.00,WUHU216HW,2013-02-05 10:45:00,
2013-02-05 05:50:00,27.2,24.4,29.88,NW,315,0.4,0.4,89,0.00,,,0.00,WUHU216HW,2013-02-05 10:50:00,
2013-02-05 05:55:00,27.2,24.4,29.89,NW,315,0.0,0.4,89,0.00,,,0.00,WUHU216HW,2013-02-05 10:55:00,
2013-02-05 06:00:00,27.2,24.4,29.88,NW,315,0.7,0.7,89,0.00,,,0.00,WUHU216HW,2013-02-05 11:00:00,
2013-02-05 06:05:00,27.0,24.2,29.88,NW,315,0.0,0.7,89,0.00,,,0.00,WUHU216HW,2013-02-05 11:05:00,
2013-02-05 06:10:00,27.0,24.2,29.88,NW,315,0.0,0.0,89,0.00,,,0.00,WUHU216HW,2013-02-05 11:10:00,
2013-02-05 06:15:00,27.0,24.2,29.89,NW,315,0.0,0.0,89,0.00,,,0.00,WUHU216HW,2013-02-05 11:15:00,
2013-02-05 06:20:00,27.2,24.4,29.89,NW,315,0.0,0.0,89,0.00,,,0.00,WUHU216HW,2013-02-05 11:20:00,
2013-02-05 06:25:00,27.2,24.4,29.89,NW,315,0.0,0.2,89,0.00,,,0.00,WUHU216HW,2013-02-05 11:25:00,
2013-02-05 06:30:00,27.2,24.4,29.88,NW,315,0.0,0.2,89,0.00,,,0.00,WUHU216HW,2013-02-05 11:30:00,
2013-02-05 06:35:00,27.2,24.4,29.88,NW,315,0.0,0.0,89,0.00,,,0.00,WUHU216HW,2013-02-05 11:35:00,
2013-02-05 06:40:00,27.4,24.6,29.88,NW,315,0.0,0.0,89,0.00,,,0.00,WUHU216HW,2013-02-05 11:40:00,
2013-02-05 06:45:00,27.4,24.6,29.88,NW,315,0.0,0.0,89,0.00,,,0.00,WUHU216HW,2013-02-05 11:45:00,
2013-02-05 06:50:00,27.4,24.6,29.88,NW,315,0.0,0.0,89,0.00,,,0.00,WUHU216HW,2013-02-05 11:50:00,
2013-02-05 06:55:00,27.4,24.6,29.88,NW,315,0.0,0.0,89,0.00,,,0.00,WUHU216HW,2013-02-05 11:55:00,
2013-02-05 07:00:00,27.4,24.6,29.89,NW,315,0.0,0.0,89,0.00,,,0.00,WUHU216HW,2013-02-05 12:00:00,
2013-02-05 07:05:00,27.4,24.6,29.88,NW,315,0.0,0.0,89,0.00,,,0.00,WUHU216HW,2013-02-05 12:05:00,
2013-02-05 07:10:00,27.4,24.6,29.89,NW,315,0.0,0.0,89,0.00,,,0.00,WUHU216HW,2013-02-05 12:10:00,
2013-02-05 07:15:00,27.4,24.6,29.89,NW,315,0.0,0.0,89,0.00,,,0.00,WUHU216HW,2013-02-05 12:15:00,
2013-02-05 07:20:00,27.4,24.6,29.89,NW,315,0.0,0.0,89,0.00,,,0.00,WUHU216HW,2013-02-05 12:20:00,
2013-02-05 07:25:00,27.4,24.6,29.89,NW,315,0.0,0.0,89,0.00,,,0.00,WUHU216HW,2013-02-05 12:25:00,
2013-02-05 07:30:00,27.5,24.8,29.89,NW,315,0.0,0.0,89,0.00,,,0.00,WUHU216HW,2013-02-05 12:30:00,
2013-02-05 07:35:00,27.5,24.8,29.89,NW,315,0.0,0.2,89,0.00,,,0.00,WUHU216HW,2013-02-05 12:35:00,
2013-02-05 07:40:00,27.5,24.5,29.89,NW,315,0.0,0.2,88,0.00,,,0.00,WUHU216HW,2013-02-05 12:40:00,
2013-02-05 07:45:00,27.5,24.5,29.88,NW,315,0.0,0.0,88,0.00,,,0.00,WUHU216HW,2013-02-05 12:45:00,
2013-02-05 07:50:00,27.5,24.5,29.88,NW,315,0.0,0.0,88,0.00,,,0.00,WUHU216HW,2013-02-05 12:50:00,
2013-02-05 07:55:00,27.5,24.8,29.88,NW,315,0.0,0.0,89,0.00,,,0.00,WUHU216HW,2013-02-05 12:55:00,
2013-02-05 08:00:00,27.7,24.7,29.89,NW,315,0.0,0.0,88,0.00,,,0.00,WUHU216HW,2013-02-05 13:00:00,
2013-02-05 08:05:00,27.7,24.7,29.88,NW,315,0.0,0.0,88,0.00,,,0.00,WUHU216HW,2013-02-05 13:05:00,
2013-02-05 08:10:00,27.9,24.9,29.88,NW,315,0.0,0.0,88,0.00,,,0.00,WUHU216HW,2013-02-05 13:10:00,
2013-02-05 08:15:00,27.9,24.9,29.88,NW,315,0.0,0.0,88,0.00,,,0.00,WUHU216HW,2013-02-05 13:15:00,
2013-02-05 08:20:00,27.9,24.9,29.89,NW,315,0.0,0.0,88,0.00,,,0.00,WUHU216HW,2013-02-05 13:20:00,
2013-02-05 08:25:00,27.9,24.9,29.89,NW,315,0.0,0.0,88,0.00,,,0.00,WUHU216HW,2013-02-05 13:25:00,
2013-02-05 08:30:00,28.1,25.0,29.89,NW,315,0.0,0.0,88,0.00,,,0.00,WUHU216HW,2013-02-05 13:30:00,
2013-02-05 08:35:00,28.3,25.2,29.89,NW,315,0.0,0.0,88,0.00,,,0.00,WUHU216HW,2013-02-05 13:35:00,
2013-02-05 08:40:00,28.4,25.4,29.89,NW,315,0.0,0.0,88,0.00,,,0.00,WUHU216HW,2013-02-05 13:40:00,
2013-02-05 08:45:00,28.4,25.4,29.89,NW,315,0.0,0.0,88,0.00,,,0.00,WUHU216HW,2013-02-05 13:45:00,
2013-02-05 08:50:00,28.6,25.6,29.89,NW,315,0.0,0.0,88,0.00,,,0.00,WUHU216HW,2013-02-05 13:50:00,
2013-02-05 08:55:00,28.4,25.4,29.89,NW,315,0.0,0.0,88,0.00,,,0.00,WUHU216HW,2013-02-05 13:55:00,
2013-02-05 09:00:00,28.4,25.4,29.89,NW,315,0.0,0.0,88,0.00,,,0.00,WUHU216HW,2013-02-05 14:00:00,
2013-02-05 09:05:00,28.6,25.6,29.89,NW,315,0.0,0.0,88,0.00,,,0.00,WUHU216HW,2013-02-05 14:05:00,
2013-02-05 09:10:00,29.0,25.9,29.89,NW,315,0.0,0.0,88,0.00,,,0.00,WUHU216HW,2013-02-05 14:10:00,
2013-02-05 09:15:00,29.0,25.9,29.89,NW,315,0.0,0.0,88,0.00,,,0.00,WUHU216HW,2013-02-05 14:15:00,
2013-02-05 09:20:00,29.2,26.1,29.88,NW,315,0.0,0.0,88,0.00,,,0.00,WUHU216HW,2013-02-05 14:20:00,
2013-02-05 09:25:00,29.2,26.1,29.88,NW,315,0.0,0.0,88,0.00,,,0.00,WUHU216HW,2013-02-05 14:25:00,
2013-02-05 09:30:00,29.2,26.1,29.89,NNW,338,0.0,0.0,88,0.00,,,0.00,WUHU216HW,2013-02-05 14:30:00,
2013-02-05 09:35:00,29.2,26.1,29.88,NNW,338,0.0,0.0,88,0.00,,,0.00,WUHU216HW,2013-02-05 14:35:00,
2013-02-05 09:40:00,29.3,26.3,29.88,NNW,338,0.0,0.0,88,0.00,,,0.00,WUHU216HW,2013-02-05 14:40:00,
2013-02-05 09:45:00,29.5,26.5,29.89,NW,315,0.0,0.0,88,0.00,,,0.00,WUHU216HW,2013-02-05 14:45:00,
2013-02-05 09:50:00,29.9,26.8,29.89,NW,315,0.0,0.0,88,0.00,,,0.00,WUHU216HW,2013-02-05 14:50:00,
2013-02-05 09:55:00,29.9,26.5,29.89,NW,315,0.0,0.0,87,0.00,,,0.00,WUHU216HW,2013-02-05 14:55:00,
2013-02-05 10:00:00,30.1,26.6,29.89,NW,315,0.0,0.0,87,0.00,,,0.00,WUHU216HW,2013-02-05 15:00:00,
2013-02-05 10:05:00,30.4,27.4,29.89,NW,315,0.0,0.0,88,0.00,,,0.00,WUHU216HW,2013-02-05 15:05:00,
2013-02-05 10:10:00,30.6,27.6,29.89,NW,315,0.0,0.0,88,0.00,,,0.00,WUHU216HW,2013-02-05 15:10:00,
2013-02-05 10:15:00,30.6,27.6,29.89,NW,315,0.0,0.0,88,0.00,,,0.00,WUHU216HW,2013-02-05 15:15:00,
2013-02-05 10:20:00,31.0,27.9,29.89,NW,315,0.0,0.0,88,0.00,,,0.00,WUHU216HW,2013-02-05 15:20:00,
2013-02-05 10:25:00,31.3,28.3,29.89,NW,315,0.0,0.0,88,0.00,,,0.00,WUHU216HW,2013-02-05 15:25:00,
2013-02-05 10:30:00,31.5,28.5,29.89,WSW,248,0.0,0.0,88,0.00,,,0.00,WUHU216HW,2013-02-05 15:30:00,
2013-02-05 10:35:00,31.9,28.4,29.89,WSW,248,0.2,0.2,87,0.00,,,0.00,WUHU216HW,2013-02-05 15:35:00,
2013-02-05 10:40:00,32.2,28.8,29.89,WSW,248,0.0,0.2,87,0.00,,,0.00,WUHU216HW,2013-02-05 15:40:00,
2013-02-05 10:45:00,32.2,28.8,29.89,WSW,248,0.2,0.2,87,0.00,,,0.00,WUHU216HW,2013-02-05 15:45:00,
2013-02-05 10:50:00,32.0,28.4,29.89,WSW,248,0.0,0.2,86,0.00,,,0.00,WUHU216HW,2013-02-05 15:50:00,
2013-02-05 10:55:00,32.0,28.4,29.89,WSW,248,0.0,0.7,86,0.00,,,0.00,WUHU216HW,2013-02-05 15:55:00,
2013-02-05 11:00:00,31.9,28.2,29.89,WSW,248,0.2,0.7,86,0.00,,,0.00,WUHU216HW,2013-02-05 16:00:00,
2013-02-05 11:05:00,31.9,28.2,29.89,WSW,248,0.0,0.4,86,0.00,,,0.00,WUHU216HW,2013-02-05 16:05:00,
2013-02-05 11:10:00,32.0,28.4,29.89,WSW,248,0.0,0.4,86,0.00,,,0.00,WUHU216HW,2013-02-05 16:10:00,
2013-02-05 11:15:00,32.0,28.4,29.90,WSW,248,0.0,0.0,86,0.00,,,0.00,WUHU216HW,2013-02-05 16:15:00,
2013-02-05 11:20:00,32.0,28.4,29.90,WSW,248,0.0,0.0,86,0.00,,,0.00,WUHU216HW,2013-02-05 16:20:00,
2013-02-05 11:25:00,31.9,27.9,29.90,NNW,338,0.7,0.7,85,0.00,,,0.00,WUHU216HW,2013-02-05 16:25:00,
2013-02-05 11:30:00,31.7,28.0,29.89,NNW,338,0.0,0.7,86,0.00,,,0.00,WUHU216HW,2013-02-05 16:30:00,
2013-02-05 11:35:00,31.7,28.0,29.89,NNW,338,0.0,0.4,86,0.00,,,0.00,WUHU216HW,2013-02-05 16:35:00,
2013-02-05 11:40:00,31.9,28.2,29.89,WSW,248,0.0,0.9,86,0.00,,,0.00,WUHU216HW,2013-02-05 16:40:00,
2013-02-05 11:45:00,32.0,28.4,29.89,WSW,248,0.0,0.9,86,0.00,,,0.00,WUHU216HW,2013-02-05 16:45:00,
2013-02-05 11:50:00,32.4,28.7,29.88,WSW,248,0.2,0.4,86,0.00,,,0.00,WUHU216HW,2013-02-05 16:50:00,
2013-02-05 11:55:00,32.9,29.2,29.88,WSW,248,0.0,0.4,86,0.00,,,0.00,WUHU216HW,2013-02-05 16:55:00,
2013-02-05 12:00:00,33.1,29.3,29.88,WSW,248,0.2,0.2,86,0.00,,,0.00,WUHU216HW,2013-02-05 17:00:00,
2013-02-05 12:05:00,33.1,29.3,29.88,WSW,248,0.0,0.4,86,0.00,,,0.00,WUHU216HW,2013-02-05 17:05:00,
2013-02-05 12:10:00,33.3,29.3,29.87,WSW,248,0.0,0.4,85,0.00,,,0.00,WUHU216HW,2013-02-05 17:10:00,
2013-02-05 12:15:00,33.1,29.1,29.87,WSW,248,0.0,0.4,85,0.00,,,0.00,WUHU216HW,2013-02-05 17:15:00,
2013-02-05 12:20:00,32.9,28.9,29.87,WSW,248,0.0,0.4,85,0.00,,,0.00,WUHU216HW,2013-02-05 17:20:00,
2013-02-05 12:25:00,33.1,29.1,29.86,WSW,248,0.0,0.4,85,0.00,,,0.00,WUHU216HW,2013-02-05 17:25:00,
2013-02-05 12:30:00,33.7,29.5,29.86,WSW,248,0.0,0.0,85,0.00,,,0.00,WUHU216HW,2013-02-05 17:30:00,
2013-02-05 12:35:00,33.5,29.3,29.87,WSW,248,0.0,0.0,85,0.00,,,0.00,WUHU216HW,2013-02-05 17:35:00,
2013-02-05 12:40:00,33.5,29.1,29.86,WSW,248,0.0,0.0,84,0.00,,,0.00,WUHU216HW,2013-02-05 17:40:00,
2013-02-05 12:45:00,33.3,28.9,29.86,WSW,248,0.2,0.2,84,0.00,,,0.00,WUHU216HW,2013-02-05 17:45:00,
2013-02-05 12:50:00,33.3,28.9,29.86,WSW,248,0.0,0.2,84,0.00,,,0.00,WUHU216HW,2013-02-05 17:50:00,
2013-02-05 12:55:00,33.3,28.9,29.86,SW,225,0.4,1.8,84,0.00,,,0.00,WUHU216HW,2013-02-05 17:55:00,
2013-02-05 13:00:00,33.3,28.9,29.85,SW,225,0.0,1.8,84,0.00,,,0.00,WUHU216HW,2013-02-05 18:00:00,
2013-02-05 13:05:00,33.1,28.8,29.86,WSW,248,0.2,0.4,84,0.00,,,0.00,WUHU216HW,2013-02-05 18:05:00,
2013-02-05 13:10:00,33.1,28.8,29.85,WSW,248,0.0,1.1,84,0.00,,,0.00,WUHU216HW,2013-02-05 18:10:00,
2013-02-05 13:15:00,33.1,28.8,29.85,WSW,248,0.0,1.1,84,0.00,,,0.00,WUHU216HW,2013-02-05 18:15:00,
2013-02-05 13:20:00,33.1,28.8,29.84,WSW,248,0.0,0.4,84,0.00,,,0.00,WUHU216HW,2013-02-05 18:20:00,
2013-02-05 13:25:00,32.9,28.6,29.84,WSW,248,0.0,0.7,84,0.00,,,0.00,WUHU216HW,2013-02-05 18:25:00,
2013-02-05 13:30:00,32.9,28.6,29.84,West,270,0.0,0.7,84,0.00,,,0.00,WUHU216HW,2013-02-05 18:30:00,
2013-02-05 13:35:00,32.6,28.0,29.84,NW,315,0.0,0.4,83,0.01,,,0.01,WUHU216HW,2013-02-05 18:35:00,
2013-02-05 13:40:00,32.4,28.1,29.84,NW,315,0.0,0.4,84,0.01,,,0.01,WUHU216HW,2013-02-05 18:40:00,
2013-02-05 13:45:00,32.4,28.1,29.84,NW,315,0.0,0.2,84,0.01,,,0.01,WUHU216HW,2013-02-05 18:45:00,
2013-02-05 13:50:00,32.4,28.1,29.84,NW,315,0.0,0.0,84,0.01,,,0.01,WUHU216HW,2013-02-05 18:50:00,
2013-02-05 13:55:00,32.6,28.3,29.84,NW,315,0.0,0.4,84,0.01,,,0.01,WUHU216HW,2013-02-05 18:55:00,
2013-02-05 14:00:00,32.6,28.5,29.83,NW,315,0.4,0.4,85,0.01,,,0.01,WUHU216HW,2013-02-05 19:00:00,
2013-02-05 14:05:00,32.8,28.7,29.83,NW,315,0.0,0.4,85,0.01,,,0.01,WUHU216HW,2013-02-05 19:05:00,
2013-02-05 14:10:00,32.9,28.9,29.83,WSW,248,0.0,0.4,85,0.01,,,0.01,WUHU216HW,2013-02-05 19:10:00,
2013-02-05 14:15:00,32.9,28.6,29.83,WSW,248,0.0,0.4,84,0.01,,,0.01,WUHU216HW,2013-02-05 19:15:00,
2013-02-05 14:20:00,32.9,28.6,29.83,WSW,248,0.0,0.4,84,0.01,,,0.01,WUHU216HW,2013-02-05 19:20:00,
2013-02-05 14:25:00,32.8,28.4,29.83,West,270,0.0,0.4,84,0.01,,,0.01,WUHU216HW,2013-02-05 19:25:00,
2013-02-05 14:30:00,32.8,28.4,29.83,West,270,0.0,0.2,84,0.01,,,0.01,WUHU216HW,2013-02-05 19:30:00,
2013-02-05 14:35:00,32.8,28.4,29.83,West,270,0.4,0.4,84,0.00,,,0.01,WUHU216HW,2013-02-05 19:35:00,
2013-02-05 14:40:00,32.8,28.4,29.83,WSW,248,1.1,1.1,84,0.00,,,0.01,WUHU216HW,2013-02-05 19:40:00,
2013-02-05 14:45:00,32.9,28.9,29.83,SSW,203,0.0,1.1,85,0.00,,,0.01,WUHU216HW,2013-02-05 19:45:00,
2013-02-05 14:50:00,32.8,28.7,29.84,SW,225,0.9,1.1,85,0.00,,,0.01,WUHU216HW,2013-02-05 19:50:00,
2013-02-05 14:55:00,32.4,28.5,29.84,SW,225,0.0,1.6,85,0.00,,,0.01,WUHU216HW,2013-02-05 19:55:00,
2013-02-05 15:00:00,32.2,28.3,29.84,SW,225,0.7,1.6,85,0.00,,,0.01,WUHU216HW,2013-02-05 20:00:00,
2013-02-05 15:05:00,32.2,28.3,29.84,SW,225,0.0,0.7,85,0.00,,,0.01,WUHU216HW,2013-02-05 20:05:00,
2013-02-05 15:10:00,32.0,28.4,29.84,SW,225,0.4,1.1,86,0.00,,,0.01,WUHU216HW,2013-02-05 20:10:00,
2013-02-05 15:15:00,32.0,28.4,29.85,SW,225,0.2,1.1,86,0.00,,,0.01,WUHU216HW,2013-02-05 20:15:00,
2013-02-05 15:20:00,32.4,28.7,29.85,SW,225,0.9,0.9,86,0.00,,,0.01,WUHU216HW,2013-02-05 20:20:00,
2013-02-05 15:25:00,32.4,28.7,29.84,WSW,248,0.2,2.0,86,0.00,,,0.01,WUHU216HW,2013-02-05 20:25:00,
2013-02-05 15:30:00,32.0,28.4,29.84,West,270,0.2,2.0,86,0.00,,,0.01,WUHU216HW,2013-02-05 20:30:00,
2013-02-05 15:35:00,32.0,28.6,29.84,WNW,293,0.0,0.4,87,0.00,,,0.01,WUHU216HW,2013-02-05 20:35:00,
2013-02-05 15:40:00,32.0,28.6,29.85,NW,315,0.0,0.4,87,0.00,,,0.01,WUHU216HW,2013-02-05 20:40:00,
2013-02-05 15:45:00,32.0,28.4,29.84,WSW,248,0.2,1.1,86,0.00,,,0.01,WUHU216HW,2013-02-05 20:45:00,
2013-02-05 15:50:00,32.2,28.8,29.85,West,270,0.9,1.1,87,0.00,,,0.01,WUHU216HW,2013-02-05 20:50:00,
2013-02-05 15:55:00,32.2,28.5,29.85,WSW,248,0.4,1.1,86,0.00,,,0.01,WUHU216HW,2013-02-05 20:55:00,
2013-02-05 16:00:00,32.4,28.7,29.85,NW,315,0.0,0.9,86,0.00,,,0.01,WUHU216HW,2013-02-05 21:00:00,
2013-02-05 16:05:00,32.4,28.7,29.85,NW,315,0.0,1.3,86,0.00,,,0.01,WUHU216HW,2013-02-05 21:05:00,
2013-02-05 16:10:00,32.4,28.7,29.86,West,270,0.0,1.6,86,0.00,,,0.01,WUHU216HW,2013-02-05 21:10:00,
2013-02-05 16:15:00,32.2,28.5,29.86,NNW,338,1.1,1.6,86,0.00,,,0.01,WUHU216HW,2013-02-05 21:15:00,
2013-02-05 16:20:00,32.2,28.5,29.86,NNW,338,0.0,1.1,86,0.00,,,0.01,WUHU216HW,2013-02-05 21:20:00,
2013-02-05 16:25:00,32.4,28.7,29.86,WNW,293,0.0,0.4,86,0.00,,,0.01,WUHU216HW,2013-02-05 21:25:00,
2013-02-05 16:30:00,32.2,28.3,29.86,West,270,0.2,2.2,85,0.00,,,0.01,WUHU216HW,2013-02-05 21:30:00,
2013-02-05 16:35:00,32.2,28.3,29.86,NW,315,1.6,2.2,85,0.00,,,0.01,WUHU216HW,2013-02-05 21:35:00,
2013-02-05 16:40:00,32.4,28.1,29.86,West,270,0.0,1.6,84,0.00,,,0.01,WUHU216HW,2013-02-05 21:40:00,
2013-02-05 16:45:00,32.4,28.1,29.86,NW,315,0.4,3.6,84,0.00,,,0.01,WUHU216HW,2013-02-05 21:45:00,
2013-02-05 16:50:00,32.2,27.4,29.86,NW,315,0.9,3.6,82,0.00,,,0.01,WUHU216HW,2013-02-05 21:50:00,
2013-02-05 16:55:00,32.0,26.9,29.87,WNW,293,1.6,2.7,81,0.00,,,0.01,WUHU216HW,2013-02-05 21:55:00,
2013-02-05 17:00:00,32.0,26.9,29.86,NW,315,0.0,2.7,81,0.00,,,0.01,WUHU216HW,2013-02-05 22:00:00,
2013-02-05 17:05:00,31.9,26.5,29.86,NW,315,0.2,2.5,80,0.00,,,0.01,WUHU216HW,2013-02-05 22:05:00,
2013-02-05 17:10:00,31.9,26.7,29.87,WSW,248,0.2,1.1,81,0.00,,,0.01,WUHU216HW,2013-02-05 22:10:00,
2013-02-05 17:15:00,31.7,26.6,29.87,WSW,248,0.4,0.7,81,0.00,,,0.01,WUHU216HW,2013-02-05 22:15:00,
2013-02-05 17:20:00,31.7,26.3,29.87,West,270,0.0,1.8,80,0.00,,,0.01,WUHU216HW,2013-02-05 22:20:00,
2013-02-05 17:25:00,31.5,26.1,29.87,NNW,338,0.0,1.8,80,0.00,,,0.01,WUHU216HW,2013-02-05 22:25:00,
2013-02-05 17:30:00,31.5,26.1,29.88,WSW,248,0.4,2.5,80,0.00,,,0.01,WUHU216HW,2013-02-05 22:30:00,
2013-02-05 17:35:00,31.3,25.9,29.87,NNW,338,0.0,2.5,80,0.00,,,0.01,WUHU216HW,2013-02-05 22:35:00,
2013-02-05 17:40:00,31.1,25.4,29.87,NW,315,0.0,0.9,79,0.00,,,0.01,WUHU216HW,2013-02-05 22:40:00,
2013-02-05 17:45:00,31.0,25.2,29.87,NW,315,0.0,0.7,79,0.00,,,0.01,WUHU216HW,2013-02-05 22:45:00,
2013-02-05 17:50:00,31.0,25.2,29.87,NW,315,0.4,0.7,79,0.00,,,0.01,WUHU216HW,2013-02-05 22:50:00,
2013-02-05 17:55:00,30.8,25.0,29.87,NNW,338,0.4,0.7,79,0.00,,,0.01,WUHU216HW,2013-02-05 22:55:00,
2013-02-05 18:00:00,30.6,24.8,29.87,NNW,338,0.0,0.4,79,0.00,,,0.01,WUHU216HW,2013-02-05 23:00:00,
2013-02-05 18:05:00,30.6,24.8,29.88,NNW,338,0.0,0.0,79,0.00,,,0.01,WUHU216HW,2013-02-05 23:05:00,
2013-02-05 18:10:00,30.4,25.0,29.88,NNW,338,0.0,0.4,80,0.00,,,0.01,WUHU216HW,2013-02-05 23:10:00,
2013-02-05 18:15:00,30.2,24.5,29.88,NNW,338,0.0,0.4,79,0.00,,,0.01,WUHU216HW,2013-02-05 23:15:00,
2013-02-05 18:20:00,30.1,24.7,29.88,NNW,338,0.0,0.4,80,0.00,,,0.01,WUHU216HW,2013-02-05 23:20:00,
2013-02-05 18:25:00,29.9,24.5,29.88,NNW,338,0.0,0.4,80,0.00,,,0.01,WUHU216HW,2013-02-05 23:25:00,
2013-02-05 18:30:00,29.9,24.5,29.89,NNW,338,0.0,0.2,80,0.00,,,0.01,WUHU216HW,2013-02-05 23:30:00,
2013-02-05 18:35:00,29.7,24.3,29.89,NNW,338,0.0,0.0,80,0.00,,,0.01,WUHU216HW,2013-02-05 23:35:00,
2013-02-05 18:40:00,29.7,24.6,29.89,NNW,338,0.0,0.0,81,0.00,,,0.01,WUHU216HW,2013-02-05 23:40:00,
2013-02-05 18:45:00,29.7,24.3,29.89,NNW,338,0.0,0.2,80,0.00,,,0.01,WUHU216HW,2013-02-05 23:45:00,
2013-02-05 18:50:00,29.7,24.3,29.89,NNW,338,0.0,0.2,80,0.00,,,0.01,WUHU216HW,2013-02-05 23:50:00,
2013-02-05 18:55:00,29.9,24.8,29.89,NNW,338,0.0,0.0,81,0.00,,,0.01,WUHU216HW,2013-02-05 23:55:00,
2013-02-05 19:00:00,29.9,24.8,29.89,NNW,338,0.0,0.0,81,0.00,,,0.01,WUHU216HW,2013-02-06 00:00:00,
2013-02-05 19:05:00,29.9,24.8,29.90,NNW,338,0.0,0.0,81,0.00,,,0.01,WUHU216HW,2013-02-06 00:05:00,
2013-02-05 19:10:00,29.9,24.8,29.90,NNW,338,0.0,0.0,81,0.00,,,0.01,WUHU216HW,2013-02-06 00:10:00,
2013-02-05 19:15:00,29.9,24.8,29.90,NNW,338,0.0,0.0,81,0.00,,,0.01,WUHU216HW,2013-02-06 00:15:00,
2013-02-05 19:20:00,29.9,24.8,29.91,NNW,338,0.0,0.0,81,0.00,,,0.01,WUHU216HW,2013-02-06 00:20:00,
2013-02-05 19:25:00,29.9,24.8,29.91,NNW,338,0.0,0.0,81,0.00,,,0.01,WUHU216HW,2013-02-06 00:25:00,
2013-02-05 19:30:00,29.9,24.8,29.91,NNW,338,0.0,0.0,81,0.00,,,0.01,WUHU216HW,2013-02-06 00:30:00,
2013-02-05 19:35:00,29.9,24.8,29.91,NNW,338,0.0,0.0,81,0.00,,,0.01,WUHU216HW,2013-02-06 00:35:00,
2013-02-05 19:40:00,29.9,24.8,29.91,NNW,338,0.0,0.0,81,0.00,,,0.01,WUHU216HW,2013-02-06 00:40:00,
2013-02-05 19:45:00,29.9,24.8,29.91,NNW,338,0.0,0.0,81,0.00,,,0.01,WUHU216HW,2013-02-06 00:45:00,
2013-02-05 19:50:00,29.9,24.8,29.92,NNW,338,0.0,0.0,81,0.00,,,0.01,WUHU216HW,2013-02-06 00:50:00,
2013-02-05 19:55:00,29.9,24.8,29.92,SW,225,0.0,1.8,81,0.00,,,0.01,WUHU216HW,2013-02-06 00:55:00,
2013-02-05 20:00:00,29.9,25.0,29.92,West,270,0.4,1.8,82,0.00,,,0.01,WUHU216HW,2013-02-06 01:00:00,
2013-02-05 20:05:00,29.9,25.0,29.92,West,270,0.2,0.7,82,0.00,,,0.01,WUHU216HW,2013-02-06 01:05:00,
2013-02-05 20:10:00,29.7,24.8,29.92,SW,225,0.0,1.3,82,0.00,,,0.01,WUHU216HW,2013-02-06 01:10:00,
2013-02-05 20:15:00,29.7,25.2,29.92,SW,225,0.0,1.3,83,0.00,,,0.01,WUHU216HW,2013-02-06 01:15:00,
2013-02-05 20:20:00,29.5,25.0,29.92,SW,225,0.2,0.4,83,0.00,,,0.01,WUHU216HW,2013-02-06 01:20:00,
2013-02-05 20:25:00,29.5,25.0,29.92,WNW,293,0.0,1.1,83,0.00,,,0.01,WUHU216HW,2013-02-06 01:25:00,
2013-02-05 20:30:00,29.5,25.3,29.92,SW,225,0.9,1.1,84,0.00,,,0.01,WUHU216HW,2013-02-06 01:30:00,
2013-02-05 20:35:00,29.3,25.1,29.93,West,270,0.2,0.9,84,0.00,,,0.01,WUHU216HW,2013-02-06 01:35:00,
2013-02-05 20:40:00,29.2,24.9,29.93,WSW,248,0.2,1.1,84,0.00,,,0.01,WUHU216HW,2013-02-06 01:40:00,
2013-02-05 20:45:00,29.2,25.2,29.93,NW,315,0.0,1.1,85,0.00,,,0.01,WUHU216HW,2013-02-06 01:45:00,
2013-02-05 20:50:00,29.2,25.2,29.93,WSW,248,0.0,0.9,85,0.00,,,0.01,WUHU216HW,2013-02-06 01:50:00,
2013-02-05 20:55:00,29.2,25.2,29.93,SW,225,0.4,0.9,85,0.00,,,0.01,WUHU216HW,2013-02-06 01:55:00,
2013-02-05 21:00:00,29.2,25.2,29.93,West,270,0.0,1.3,85,0.00,,,0.01,WUHU216HW,2013-02-06 02:00:00,
2013-02-05 21:05:00,29.0,25.3,29.94,SW,225,0.0,2.9,86,0.00,,,0.01,WUHU216HW,2013-02-06 02:05:00,
2013-02-05 21:10:00,29.0,25.3,29.93,West,270,0.7,2.9,86,0.00,,,0.01,WUHU216HW,2013-02-06 02:10:00,
2013-02-05 21:15:00,29.0,25.3,29.93,WSW,248,0.4,0.7,86,0.00,,,0.01,WUHU216HW,2013-02-06 02:15:00,
2013-02-05 21:20:00,29.0,25.3,29.94,WSW,248,0.7,0.7,86,0.00,,,0.01,WUHU216HW,2013-02-06 02:20:00,
2013-02-05 21:25:00,28.8,25.1,29.94,SW,225,0.0,1.8,86,0.00,,,0.01,WUHU216HW,2013-02-06 02:25:00,
2013-02-05 21:30:00,28.8,25.1,29.94,SW,225,0.4,1.8,86,0.00,,,0.01,WUHU216HW,2013-02-06 02:30:00,
2013-02-05 21:35:00,28.8,25.1,29.94,West,270,0.2,0.9,86,0.00,,,0.01,WUHU216HW,2013-02-06 02:35:00,
2013-02-05 21:40:00,28.6,24.9,29.94,West,270,0.0,1.1,86,0.00,,,0.01,WUHU216HW,2013-02-06 02:40:00,
2013-02-05 21:45:00,28.6,24.9,29.95,WSW,248,0.0,1.1,86,0.00,,,0.01,WUHU216HW,2013-02-06 02:45:00,
2013-02-05 21:50:00,28.6,24.9,29.95,NW,315,0.0,0.9,86,0.00,,,0.01,WUHU216HW,2013-02-06 02:50:00,
2013-02-05 21:55:00,28.8,25.1,29.95,NW,315,0.0,0.4,86,0.00,,,0.01,WUHU216HW,2013-02-06 02:55:00,
2013-02-05 22:00:00,28.6,24.9,29.95,NW,315,0.4,0.4,86,0.00,,,0.01,WUHU216HW,2013-02-06 03:00:00,
2013-02-05 22:05:00,28.6,24.9,29.94,NW,315,0.0,0.7,86,0.00,,,0.01,WUHU216HW,2013-02-06 03:05:00,
2013-02-05 22:10:00,28.6,24.9,29.94,NW,315,0.0,0.7,86,0.00,,,0.01,WUHU216HW,2013-02-06 03:10:00,
2013-02-05 22:15:00,28.6,25.2,29.94,NW,315,0.0,0.2,87,0.00,,,0.01,WUHU216HW,2013-02-06 03:15:00,
2013-02-05 22:20:00,28.8,25.1,29.94,NW,315,0.0,0.0,86,0.00,,,0.01,WUHU216HW,2013-02-06 03:20:00,
2013-02-05 22:25:00,28.8,25.1,29.94,NW,315,0.0,0.2,86,0.00,,,0.01,WUHU216HW,2013-02-06 03:25:00,
2013-02-05 22:30:00,28.8,25.1,29.94,NW,315,0.0,0.2,86,0.00,,,0.01,WUHU216HW,2013-02-06 03:30:00,
2013-02-05 22:35:00,28.8,25.1,29.94,NW,315,0.0,0.0,86,0.00,,,0.01,WUHU216HW,2013-02-06 03:35:00,
2013-02-05 22:40:00,28.8,25.1,29.94,NW,315,0.0,0.0,86,0.00,,,0.01,WUHU216HW,2013-02-06 03:40:00,
2013-02-05 22:45:00,28.8,25.1,29.94,NW,315,0.0,0.0,86,0.00,,,0.01,WUHU216HW,2013-02-06 03:45:00,
2013-02-05 22:50:00,28.8,25.1,29.95,NW,315,0.0,0.0,86,0.00,,,0.01,WUHU216HW,2013-02-06 03:50:00,
2013-02-05 22:55:00,28.8,25.1,29.94,NW,315,0.2,0.2,86,0.00,,,0.01,WUHU216HW,2013-02-06 03:55:00,
2013-02-05 23:00:00,28.8,25.1,29.94,NW,315,0.0,0.2,86,0.00,,,0.01,WUHU216HW,2013-02-06 04:00:00,
2013-02-05 23:05:00,28.8,25.1,29.94,NW,315,0.0,0.2,86,0.00,,,0.01,WUHU216HW,2013-02-06 04:05:00,
2013-02-05 23:10:00,28.8,25.1,29.94,NW,315,0.0,0.2,86,0.00,,,0.01,WUHU216HW,2013-02-06 04:10:00,
2013-02-05 23:15:00,28.8,25.1,29.94,NW,315,0.0,0.0,86,0.00,,,0.01,WUHU216HW,2013-02-06 04:15:00,
2013-02-05 23:20:00,28.8,25.1,29.94,NW,315,0.0,0.2,86,0.00,,,0.01,WUHU216HW,2013-02-06 04:20:00,
2013-02-05 23:25:00,28.8,25.1,29.94,NW,315,0.0,0.2,86,0.00,,,0.01,WUHU216HW,2013-02-06 04:25:00,
2013-02-05 23:30:00,29.0,25.3,29.95,NW,315,0.0,0.0,86,0.00,,,0.01,WUHU216HW,2013-02-06 04:30:00,
2013-02-05 23:35:00,28.8,25.1,29.94,NW,315,0.0,0.0,86,0.00,,,0.01,WUHU216HW,2013-02-06 04:35:00,
2013-02-05 23:40:00,29.0,25.3,29.94,NW,315,0.0,0.2,86,0.00,,,0.01,WUHU216HW,2013-02-06 04:40:00,
2013-02-05 23:45:00,28.8,25.4,29.94,NW,315,0.0,0.2,87,0.00,,,0.01,WUHU216HW,2013-02-06 04:45:00,
2013-02-05 23:50:00,28.8,25.4,29.94,NW,315,0.0,0.0,87,0.00,,,0.01,WUHU216HW,2013-02-06 04:50:00,
2013-02-05 23:55:00,28.8,25.4,29.95,NW,315,0.0,0.0,87,0.00,,,0.01,WUHU216HW,2013-02-06 04:55:00,